SCP
0 0 0 0 0 0 0 0 0 0 0 0 0 0 0 0 0 0 0 0 0 0 0 0 0 0 0 0 0 0 0 0 0 0 0 0 0 0 0 0 0 0 0 0 0 0 0 0 0
0 0 0 0 0 0 0 0 0 0 0 0 0 0 0 0 0 0 0 0 0 0 0 0 0 0 0 0 0 0 0 0 0 0 0 0 0 0 0 0 0 0 0 0 0 0 0 0 0
0 0 0 0 0 0 0 0 0 0 0 0 0 0 0 0 0 0 0 0 0 0 0 0 0 0 0 0 0 0 0 0 0 0 0 0 0 0 0 0 0 0 0 0 0 0 0 0 0
0 0 0 0 0 0 0 0 0 0 0 0 0 0 0 0 0 0 0 0 0 0 0 0 0 0 0 0 0 0 0 0 0 0 0 0 0 0 0 0 0 0 0 0 0 0 0 0 0
0 0 0 0 0 0 0 0 0 0 0 0 0 0 0 0 0 0 0 0 0 0 0 0 0 0 0 0 0 0 0 0 0 0 0 0 0 0 0 0 0 0 0 0 0 0 0 0 0
0 0 0 0 0 0 0 0 0 0 0 0 0 0 0 0 0 0 0 0 0 0 0 0 0 0 0 0 0 0 0 0 0 0 0 0 0 0 0 0 0 0 0 0 0 0 0 0 0
0 0 0 0 0 0 0 0 0 0 0 0 0 0 0 0 0 0 0 0 0 0 0 0 0 0 0 0 0 0 0 0 0 0 0 0 0 0 0 0 0 0 0 0 0 0 0 0 0
0 0 0 0 0 0 0 0 0 0 0 0 0 0 0 0 0 0 0 0 0 0 0 0 0 0 0 0 0 0 0 0 0 0 0 0 0 0 0 0 0 0 0 0 0 0 0 0 0
0 0 0 0 0 0 0 0 0 0 0 0 0 0 0 0 0 0 0 0 0 0 0 0 0 0 0 0 0 0 0 0 0 0 0 0 0 0 0 0 0 0 0 0 0 0 0 0 0
0 0 0 0 0 0 0 0 0 0 0 0 0 0 0 0 0 0 0 0 0 0 0 0 0 0 0 0 0 0 0 0 0 0 0 0 0 0 0 0 0 0 0 0 0 0 0 0 0
0 0 0 0 0 0 0 0 0 0 0 0 0 0 0 0 0 0 0 0 0 0 0 0 0 0 0 0 0 0 0 0 0 0 0 0 0 0 0 0 0 0 0 0 0 0 0 0 0
0 0 0 0 0 0 0 0 0 0 0 0 0 0 0 0 0 0 0 0 0 0 0 0 0 0 0 0 0 0 0 0 0 0 0 0 0 0 0 0 0 0 0 0 0 0 0 0 0
0 0 0 0 0 0 0 0 0 0 0 0 0 0 0 0 0 0 0 0 0 0 0 0 0 0 0 0 0 0 0 0 0 0 0 0 0 0 0 0 0 0 0 0 0 0 0 0 0
0 0 0 0 0 0 0 0 0 0 0 0 0 0 0 0 0 0 0 0 0 0 0 0 0 0 0 0 0 0 0 0 0 0 0 0 0 0 0 0 0 0 0 0 0 0 0 0 0
0 0 0 0 0 0 0 0 0 0 0 0 0 0 0 0 0 0 0 0 0 0 0 0 0 0 0 0 0 0 0 0 0 0 0 0 0 0 0 0 0 0 0 0 0 0 0 0 0
0 0 0 0 0 0 0 0 0 0 0 0 0 0 0 0 0 0 0 0 0 0 0 0 0 0 0 0 0 0 0 0 0 0 0 0 0 0 0 0 0 0 0 0 0 0 0 0 0
0 0 0 0 0 0 0 0 0 0 0 0 0 0 0 0 0 0 0 0 0 0 0 0 0 0 0 0 0 0 0 0 0 0 0 0 0 0 0 0 0 0 0 0 0 0 0 0 0
0 0 0 0 0 0 0 0 0 0 0 0 0 0 0 0 0 0 0 0 0 0 1 1 0 0 0 0 0 0 0 0 0 0 0 0 0 0 0 0 0 0 0 0 0 0 0 0 0
0 0 0 0 0 0 0 0 0 0 0 0 0 0 0 0 0 0 0 0 0 0 1 1 0 0 0 0 0 0 0 0 0 0 0 0 0 0 0 0 0 0 0 0 0 0 0 0 0
0 0 0 0 0 0 0 0 0 0 0 0 0 0 0 0 0 0 0 0 0 0 0 0 0 0 0 0 0 0 0 0 0 0 0 0 0 0 0 0 0 0 0 0 0 0 0 0 0
0 0 0 0 0 0 0 0 0 0 0 0 0 0 0 0 0 0 0 0 0 0 0 0 0 0 0 0 0 0 0 0 0 0 0 0 0 0 0 0 0 0 0 0 0 0 0 0 0
0 0 0 0 0 0 0 0 0 0 0 0 0 0 0 0 0 0 0 0 0 0 0 0 0 0 0 0 0 0 0 0 0 0 0 0 0 0 0 0 0 0 0 0 0 0 0 0 0
0 0 0 0 0 0 0 0 0 0 0 0 0 0 0 0 0 0 0 0 0 0 0 0 0 0 0 0 0 0 0 0 0 0 0 0 0 0 0 0 0 0 0 0 0 0 0 0 0
0 0 0 0 0 0 0 0 0 0 0 0 0 0 0 0 0 0 0 0 0 0 0 0 0 0 0 0 0 0 0 0 0 0 0 0 0 0 0 0 0 0 0 0 0 0 0 0 0
0 0 0 0 0 0 0 0 0 0 0 0 0 0 0 0 0 0 0 0 0 0 0 0 0 0 0 0 0 0 0 0 0 0 0 0 0 0 0 0 0 0 0 0 0 0 0 0 0
0 0 0 0 0 0 0 0 0 0 0 0 0 0 0 0 0 0 0 0 0 0 0 0 0 0 0 0 0 0 0 0 0 0 0 0 0 0 0 0 0 0 0 0 0 0 0 0 0
0 0 0 0 0 0 0 0 0 0 0 0 0 0 0 0 0 0 0 0 0 0 0 0 0 0 0 0 0 0 0 0 0 0 0 0 0 0 0 0 0 0 0 0 0 0 0 0 0
0 0 0 0 0 0 0 0 0 0 0 0 0 0 0 0 0 0 0 0 0 0 0 0 0 0 0 0 0 0 0 0 0 0 0 0 0 0 0 0 0 0 0 0 0 0 0 0 0
0 0 0 0 0 0 0 0 0 0 0 0 0 0 0 0 0 0 0 0 0 0 0 0 0 0 0 0 0 0 0 0 0 0 0 0 0 0 0 0 0 0 0 0 0 0 0 0 0
0 0 0 0 0 0 0 0 0 0 0 0 0 0 0 0 0 0 0 0 0 0 0 0 0 0 0 0 0 0 0 0 0 0 0 0 0 0 0 0 0 0 0 0 0 0 0 0 0
Wind_Speed
11 10 6 3 3 4 2 5 5 6 5 6 6 5 7 11 7 9 5 11 15 15 12 10 10 11 11 10 11 11 13 13 14 14 14 14 15 16 16 16 16 17 17 17 17 18 18 17 17
8 7 4 3 3 4 3 6 6 6 9 7 4 1 4 9 8 8 7 13 15 14 12 11 11 11 11 10 10 11 12 13 13 14 14 14 14 15 15 16 16 16 17 17 17 17 17 16 16
7 6 3 3 5 5 3 7 9 10 7 5 3 2 6 7 9 6 9 13 13 12 12 12 11 11 11 10 10 11 12 13 13 13 13 14 14 14 15 15 15 16 16 16 16 16 16 16 15
4 3 3 4 6 2 5 6 11 9 4 1 3 7 6 5 5 9 11 12 12 12 13 11 11 11 11 10 10 11 12 12 13 13 13 13 13 14 14 14 14 15 15 16 16 15 15 14 14
3 3 4 5 6 1 5 5 8 8 7 4 1 7 7 4 9 13 10 11 11 12 12 11 10 10 10 10 11 11 11 12 12 12 12 12 12 13 13 13 13 14 14 14 14 14 14 13 13
3 3 4 6 6 2 5 3 5 7 6 5 2 5 7 6 8 9 9 10 10 12 12 10 10 10 9 9 9 10 10 11 12 12 12 12 12 12 12 12 12 13 13 13 13 13 13 12 12
3 4 6 7 5 4 5 4 5 5 6 6 2 4 8 7 8 8 8 9 10 12 11 9 8 8 9 9 9 9 9 10 10 11 11 10 10 11 11 11 11 12 12 12 12 12 11 11 10
3 4 7 7 5 4 7 4 2 3 5 5 2 2 8 10 10 8 7 7 10 10 10 9 8 8 7 7 9 9 9 10 10 11 10 10 10 10 9 9 10 10 11 11 11 10 10 9 8
3 4 6 6 4 5 8 5 2 4 6 4 5 6 9 15 11 9 6 6 8 8 8 8 8 8 8 7 8 8 9 9 10 8 9 8 5 6 5 9 9 10 10 10 9 8 7 6 5
4 4 6 4 2 5 8 7 7 3 5 5 6 7 10 11 10 10 9 8 8 8 7 7 7 7 8 8 7 5 5 6 5 5 5 3 3 5 7 9 9 9 9 8 7 5 3 2 1
5 5 5 1 4 4 8 7 8 7 6 8 11 13 11 11 10 10 9 8 8 7 6 6 6 7 6 5 5 4 4 4 5 6 5 3 4 4 5 3 4 4 5 4 3 2 1 1 1
6 6 4 1 2 2 6 5 6 5 3 4 7 16 13 12 12 11 11 10 9 9 8 6 6 6 6 5 4 4 3 3 3 5 5 3 2 3 3 3 3 3 2 2 2 1 1 1 1
7 4 0 4 2 1 3 5 5 5 7 6 8 13 12 12 10 9 9 9 9 10 10 8 7 6 6 5 4 4 4 4 4 4 4 4 3 3 3 3 2 3 3 3 2 2 2 1 0
6 5 4 4 3 1 3 4 2 5 8 8 7 8 10 11 11 10 9 9 10 10 10 10 8 7 7 5 4 4 4 4 4 4 5 5 4 4 4 3 3 2 2 2 2 2 2 1 1
3 4 4 4 4 3 3 3 5 4 7 7 7 8 9 10 11 11 10 10 9 10 10 10 10 9 8 7 6 4 4 4 4 4 5 5 4 5 4 4 3 3 3 2 1 1 1 1 1
4 5 5 6 6 2 4 6 8 7 8 7 7 8 9 9 10 10 10 9 9 10 10 11 9 10 9 8 6 4 4 4 4 4 4 5 5 5 5 4 4 4 3 3 2 2 2 2 2
7 9 9 6 6 5 5 5 3 5 5 6 6 7 8 8 9 9 9 10 10 11 11 11 11 11 10 9 6 5 5 5 4 4 4 5 6 5 4 4 4 5 4 3 3 3 3 3 3
10 9 10 9 8 6 5 6 3 5 6 6 6 6 7 8 9 8 9 9 9 10 11 11 11 11 10 8 6 5 5 5 5 5 5 7 6 6 5 4 5 5 4 3 3 4 3 2 2
6 10 10 6 5 6 7 8 7 7 7 8 7 7 7 8 7 7 8 8 8 8 9 11 12 12 10 8 8 7 7 6 5 5 7 8 7 7 6 4 5 5 5 5 5 4 4 3 1
8 8 9 5 2 2 4 9 8 8 8 8 9 8 8 7 6 7 7 7 7 8 8 9 11 12 11 9 8 6 6 6 6 6 7 8 8 8 7 7 5 6 5 5 5 4 3 3 3
9 7 6 6 4 0 2 7 10 11 10 9 8 8 7 7 7 7 7 7 7 7 7 7 9 10 12 10 6 5 5 4 5 6 6 7 8 8 8 8 7 6 6 6 7 7 6 4 3
8 3 1 8 6 4 6 5 7 11 11 11 9 8 8 6 5 6 6 6 6 6 5 6 6 7 9 11 9 8 7 7 7 5 5 7 8 8 8 8 7 6 6 6 6 7 6 5 4
3 5 5 5 3 1 4 4 7 4 6 8 9 9 7 5 4 5 5 4 3 2 2 3 4 5 6 9 10 9 8 6 4 4 6 6 6 7 7 7 6 6 6 6 6 6 6 6 5
8 7 5 2 2 4 8 6 7 6 7 6 5 5 5 5 5 5 5 4 3 2 1 2 3 3 3 6 8 8 8 6 5 4 4 4 4 4 5 5 5 5 5 5 6 5 6 6 6
9 8 4 3 4 7 4 7 8 4 4 5 7 6 6 5 4 4 5 4 3 2 2 2 3 3 2 3 4 5 6 6 5 4 3 3 2 2 3 3 4 3 4 4 4 5 5 6 6
10 10 9 8 7 4 2 8 8 2 3 4 4 5 5 5 4 5 5 5 4 3 3 3 3 3 3 3 3 3 3 3 2 2 2 2 2 2 2 2 2 2 2 3 3 3 4 4 5
9 9 5 6 3 3 6 7 6 3 3 4 5 5 6 6 6 6 5 5 4 4 4 4 5 5 5 5 6 5 5 4 4 3 3 3 3 2 3 2 2 1 0 0 1 2 2 3 4
4 7 4 6 8 5 6 7 6 7 10 9 9 8 7 7 7 6 5 5 5 4 5 5 6 6 6 6 6 6 6 5 5 5 5 5 4 4 4 3 3 2 2 1 0 1 1 2 2
5 8 7 7 6 7 5 8 5 9 9 9 9 8 9 8 7 6 6 5 5 5 5 6 6 7 7 7 7 7 7 7 7 6 6 5 5 5 4 4 3 3 3 2 2 1 2 2 3
6 8 9 9 7 6 4 8 1 4 4 6 8 8 8 8 7 7 7 6 5 5 5 6 6 6 6 6 7 7 7 7 7 6 6 5 5 5 4 4 4 4 3 3 3 3 3 3 4
Wind_Direction
298 284 278 273 260 246 223 94 89 92 89 69 51 14 41 49 44 102 138 118 113 114 122 121 114 111 109 106 105 106 105 99 95 90 86 83 82 80 79 80 78 77 76 76 75 73 72 71 70
301 303 286 259 259 253 155 119 121 102 90 90 85 356 81 80 82 108 123 115 116 121 128 121 117 114 111 108 108 108 107 103 100 94 89 85 84 82 80 81 80 80 79 78 76 75 73 71 69
285 276 271 255 251 269 105 119 113 93 108 138 135 38 47 78 108 119 121 122 118 118 115 119 121 118 114 110 107 110 110 107 104 99 93 88 85 84 83 81 81 82 81 79 77 76 74 72 68
289 256 246 255 256 283 74 113 114 115 121 160 134 106 78 35 86 118 127 126 120 115 115 122 123 120 116 113 109 112 112 111 107 103 97 92 88 87 85 83 83 83 82 81 79 77 74 71 65
246 251 236 247 256 83 77 85 122 138 154 165 215 104 92 75 93 119 135 127 122 117 118 125 121 119 117 115 112 111 112 112 110 106 102 97 93 91 90 88 86 86 84 83 81 78 74 70 64
259 245 229 230 228 143 109 123 150 160 147 132 182 108 100 122 123 137 138 129 124 118 120 124 117 117 115 113 112 112 113 113 113 110 106 102 98 94 91 90 89 88 87 85 83 81 77 71 64
254 254 245 234 212 156 130 150 186 170 138 144 176 109 118 138 133 141 138 135 125 121 125 132 133 124 113 109 107 108 111 111 112 110 105 98 94 92 88 86 89 90 90 88 86 83 79 74 65
282 263 248 244 214 160 130 153 190 170 120 86 38 79 136 138 136 140 146 139 127 129 136 143 147 141 135 119 111 109 111 111 109 108 107 104 101 97 94 87 88 93 94 93 90 86 83 77 67
284 257 236 230 215 138 136 152 128 34 95 95 69 47 100 127 138 145 151 144 133 139 144 147 150 149 147 141 129 120 115 117 118 116 127 138 138 124 102 91 91 93 97 98 95 93 93 89 76
217 239 242 241 242 139 154 157 140 149 148 140 114 97 112 131 149 159 164 164 150 153 155 150 152 151 149 143 145 148 143 147 153 144 167 191 119 105 106 97 97 99 101 103 102 108 131 170 149
218 236 254 308 24 112 154 162 152 174 187 181 166 152 148 153 164 173 176 175 166 165 163 158 157 152 146 136 157 157 152 163 163 156 177 140 109 118 120 120 120 123 134 125 133 170 224 67 61
235 248 264 134 42 114 154 155 159 205 103 70 134 150 155 168 180 184 183 180 173 173 173 174 165 156 151 150 160 151 148 157 159 154 164 147 141 148 146 150 159 160 159 143 158 160 92 57 42
239 239 16 76 97 55 146 160 174 198 127 94 101 139 162 177 186 191 189 181 175 177 172 176 173 167 162 161 163 159 159 162 159 151 168 164 156 161 148 146 149 162 146 154 167 163 146 160 199
218 212 145 137 144 134 170 161 167 214 143 130 137 159 175 183 185 188 191 186 181 180 175 174 178 178 170 173 173 169 167 162 155 154 171 180 167 161 154 151 158 160 150 158 167 169 159 187 192
222 176 159 175 170 166 173 185 216 190 144 158 173 185 191 189 185 190 190 188 183 180 178 176 180 181 179 181 183 177 174 161 160 164 178 181 175 164 157 157 165 170 157 149 161 176 151 206 213
207 194 193 183 167 144 184 222 212 166 161 187 196 196 193 195 192 192 187 184 181 177 180 181 178 184 187 186 187 185 180 172 169 167 179 182 184 176 164 167 175 171 158 162 181 187 195 222 227
200 208 200 163 181 157 200 233 172 133 163 209 218 211 193 191 196 195 189 181 180 178 178 179 179 185 190 188 186 186 183 181 175 173 178 183 186 186 174 177 177 168 167 179 188 193 196 216 226
195 203 204 187 183 170 207 235 182 173 185 220 231 223 204 199 200 192 188 183 179 178 175 177 178 184 188 188 187 187 189 189 184 183 183 180 185 188 184 181 177 168 172 188 192 200 207 219 229
219 211 213 194 140 174 212 239 238 203 192 212 227 229 218 211 206 187 177 174 173 177 177 178 180 183 185 189 190 193 197 194 193 194 190 188 185 187 188 185 180 177 188 198 194 190 208 223 185
252 236 214 117 99 179 235 249 247 237 220 210 212 220 220 212 196 174 165 166 177 185 188 185 184 183 186 193 193 194 194 195 197 195 198 195 189 187 190 191 188 188 194 201 197 186 188 209 171
227 236 218 141 113 20 338 282 239 236 228 223 217 220 225 211 188 173 170 171 175 190 197 197 193 187 187 186 186 186 195 197 191 195 199 200 194 190 191 195 194 193 194 203 203 193 193 209 200
212 224 137 125 136 193 182 262 248 216 213 213 217 219 223 215 186 164 162 168 173 188 193 200 202 195 187 183 189 188 194 202 203 192 191 191 194 194 194 196 197 196 197 205 204 198 199 199 210
164 128 116 138 167 182 189 237 275 204 199 216 217 210 204 189 161 143 129 131 126 138 174 197 206 208 195 186 187 193 202 205 198 186 183 186 188 191 192 193 195 199 201 205 203 199 203 206 212
121 91 77 95 157 240 209 205 261 214 200 207 197 169 143 119 105 102 95 91 91 99 135 183 194 209 202 185 182 192 199 196 194 195 182 178 176 181 188 189 196 199 200 204 207 203 204 210 218
153 135 125 169 204 235 202 204 242 222 174 172 161 142 125 125 129 131 131 132 125 127 149 163 166 176 168 160 170 179 185 187 194 196 185 168 160 162 178 184 194 196 203 208 206 205 213 212 216
189 170 160 174 197 217 312 229 248 221 108 96 120 132 133 143 140 129 123 119 117 118 118 113 114 111 108 114 117 118 133 144 144 144 135 131 125 123 125 154 173 185 195 204 206 211 218 218 224
173 211 186 131 117 172 225 248 260 201 200 193 187 177 175 161 143 132 122 114 113 105 99 105 103 93 85 86 87 87 91 99 100 93 86 85 80 76 71 82 96 100 121 206 215 226 234 232 233
184 165 146 148 157 210 235 221 224 204 219 210 197 187 168 150 140 133 123 110 99 92 85 84 94 95 88 84 85 87 82 84 86 84 80 75 67 63 62 56 56 60 55 34 359 291 295 272 262
169 169 173 163 171 174 223 246 220 194 193 189 185 168 157 152 149 139 127 116 109 99 93 88 87 88 87 86 86 86 82 78 77 76 72 69 63 55 53 50 50 45 38 27 17 346 332 298 289
201 183 175 169 201 190 198 256 302 95 121 140 150 148 145 144 141 135 131 126 119 110 102 94 89 88 87 88 87 86 82 79 77 73 65 64 63 55 50 48 48 42 32 24 17 352 339 322 310